| time (UTC) | temp C | wind direction | speed KPH | gust KPH | rain 1hr cm | rain 24hr cm | rain mn cm | humidity % | barometer mb |
| 20260904073036 | 13 | 28 | 6.4 | 12.9 | 0.00 | 0.00 | 0.00 | 59 | 1009.8 |
| 20260904071547 | 14 | 5 | 12.9 | 20.9 | 0.00 | 0.00 | 0.00 | 58 | 1009.9 |
| 20260904070105 | 13 | 14 | 8.0 | 12.9 | 0.00 | 0.00 | 0.00 | 61 | 1009.9 |
| 20260904064538 | 14 | 15 | 11.3 | 14.5 | 0.00 | 0.00 | 0.00 | 56 | 1009.9 |
| 20260904063036 | 13 | 35 | 8.0 | 14.5 | 0.00 | 0.00 | 0.00 | 59 | 1009.9 |
| 20260904061536 | 13 | 31 | 8.0 | 14.5 | 0.00 | 0.00 | 0.00 | 59 | 1010.0 |
| 20260904060036 | 14 | 28 | 8.0 | 14.5 | 0.00 | 0.00 | 0.00 | 58 | 1009.9 |
| 20260904054544 | 14 | 9 | 11.3 | 16.1 | 0.00 | 0.00 | 0.00 | 56 | 1010.0 |
| 20260904053048 | 13 | 337 | 9.7 | 16.1 | 0.00 | 0.00 | 0.00 | 59 | 1010.1 |
| 20260904051540 | 13 | 330 | 8.0 | 12.9 | 0.00 | 0.00 | 0.00 | 60 | 1010.4 |
| 20260904050038 | 13 | 338 | 6.4 | 9.7 | 0.00 | 0.00 | 0.00 | 59 | 1010.4 |
| 20260904044538 | 14 | 333 | 3.2 | 14.5 | 0.00 | 0.00 | 0.00 | 59 | 1010.6 |
| 20260904043038 | 13 | 13 | 11.3 | 14.5 | 0.00 | 0.00 | 0.00 | 57 | 1010.5 |
| 20260904041534 | 13 | 27 | 9.7 | 14.5 | 0.00 | 0.00 | 0.00 | 56 | 1010.5 |
| 20260904040043 | 13 | 19 | 8.0 | 11.3 | 0.00 | 0.00 | 0.00 | 57 | 1010.6 |
| 20260904034536 | 12 | 360 | 4.8 | 9.7 | 0.00 | 0.00 | 0.00 | 61 | 1010.4 |
| 20260904033042 | 12 | 317 | 9.7 | 14.5 | 0.00 | 0.00 | 0.00 | 62 | 1010.5 |
| 20260904031547 | 15 | 317 | 8.0 | 17.7 | 0.00 | 0.00 | 0.00 | 52 | 1010.4 |
| 20260904030037 | 15 | 12 | 12.9 | 14.5 | 0.00 | 0.00 | 0.00 | 50 | 1010.4 |
| 20260904024539 | 15 | 19 | 12.9 | 16.1 | 0.00 | 0.00 | 0.00 | 52 | 1010.1 |
| 20260904023037 | 16 | 42 | 9.7 | 14.5 | 0.00 | 0.00 | 0.00 | 50 | 1010.1 |
| 20260904021535 | 17 | 355 | 12.9 | 19.3 | 0.00 | 0.00 | 0.00 | 46 | 1009.7 |
| 20260904020035 | 17 | 350 | 16.1 | 24.1 | 0.00 | 0.00 | 0.00 | 44 | 1009.6 |
| 20260904014539 | 18 | 317 | 16.1 | 22.5 | 0.00 | 0.00 | 0.00 | 43 | 1009.4 |
| 20260904013043 | 20 | 323 | 8.0 | 17.7 | 0.00 | 0.00 | 0.00 | 41 | 1009.6 |
| 20260904011543 | 20 | 317 | 11.3 | 22.5 | 0.00 | 0.00 | 0.00 | 39 | 1009.5 |
| 20260904010039 | 21 | 342 | 12.9 | 29.0 | 0.00 | 0.00 | 0.00 | 39 | 1009.6 |
| 20260904004537 | 21 | 346 | 17.7 | 29.0 | 0.00 | 0.03 | 0.00 | 38 | 1009.5 |
| 20260904003041 | 21 | 292 | 24.1 | 30.6 | 0.00 | 0.03 | 0.00 | 37 | 1009.3 |
| 20260904001535 | 22 | 279 | 17.7 | 27.4 | 0.00 | 0.03 | 0.00 | 36 | 1009.3 |
| 20260904000039 | 22 | 297 | 24.1 | 33.8 | 0.00 | 0.03 | 0.00 | 36 | 1009.0 |
| 20260903234536 | 22 | 292 | 17.7 | 25.7 | 0.00 | 0.10 | 0.00 | 36 | 1009.0 |
| 20260903233038 | 22 | 302 | 20.9 | 41.8 | 0.00 | 0.10 | 0.00 | 37 | 1008.7 |
| 20260903231540 | 22 | 279 | 22.5 | 30.6 | 0.00 | 0.10 | 0.00 | 38 | 1008.9 |
| 20260903230045 | 22 | 281 | 17.7 | 27.4 | 0.00 | 0.10 | 0.00 | 36 | 1008.8 |
| 20260903224535 | 22 | 305 | 17.7 | 25.7 | 0.00 | 0.18 | 0.00 | 35 | 1008.6 |
| 20260903223035 | 23 | 246 | 17.7 | 35.4 | 0.00 | 0.18 | 0.00 | 34 | 1008.3 |
| 20260903221535 | 22 | 250 | 17.7 | 37.0 | 0.00 | 0.18 | 0.00 | 34 | 1008.2 |
| 20260903220039 | 23 | 217 | 20.9 | 40.2 | 0.00 | 0.18 | 0.00 | 31 | 1008.1 |
| 20260903214544 | 23 | 219 | 30.6 | 38.6 | 0.00 | 0.18 | 0.00 | 31 | 1008.0 |
| 20260903213045 | 23 | 256 | 20.9 | 41.8 | 0.00 | 0.18 | 0.00 | 32 | 1008.0 |
| 20260903211539 | 23 | 227 | 24.1 | 46.7 | 0.00 | 0.18 | 0.00 | 33 | 1007.9 |
| 20260903210043 | 23 | 209 | 22.5 | 38.6 | 0.00 | 0.18 | 0.00 | 33 | 1007.9 |
| 20260903204534 | 23 | 221 | 22.5 | 38.6 | 0.00 | 0.18 | 0.00 | 33 | 1007.9 |
| 20260903203036 | 22 | 241 | 22.5 | 38.6 | 0.00 | 0.18 | 0.00 | 35 | 1008.1 |
| 20260903201544 | 21 | 216 | 22.5 | 33.8 | 0.00 | 0.18 | 0.00 | 36 | 1008.1 |
| 20260903200035 | 21 | 211 | 22.5 | 40.2 | 0.00 | 0.18 | 0.00 | 37 | 1008.2 |
| 20260903194533 | 21 | 227 | 29.0 | 48.3 | 0.00 | 0.18 | 0.00 | 36 | 1008.2 |
| 20260903193038 | 21 | 229 | 30.6 | 45.1 | 0.00 | 0.18 | 0.00 | 35 | 1008.2 |
| 20260903191537 | 21 | 240 | 32.2 | 46.7 | 0.00 | 0.18 | 0.00 | 36 | 1008.3 |
| 20260903190036 | 21 | 209 | 30.6 | 51.5 | 0.00 | 0.18 | 0.00 | 37 | 1008.1 |
| 20260903184534 | 21 | 240 | 33.8 | 46.7 | 0.00 | 0.18 | 0.00 | 37 | 1008.0 |
| 20260903183039 | 21 | 234 | 25.7 | 41.8 | 0.00 | 0.18 | 0.00 | 38 | 1008.0 |
| 20260903181537 | 20 | 236 | 30.6 | 46.7 | 0.00 | 0.18 | 0.00 | 37 | 1008.2 |
| 20260903180042 | 20 | 232 | 27.4 | 40.2 | 0.00 | 0.18 | 0.00 | 43 | 1008.3 |
| 20260903174534 | 19 | 241 | 20.9 | 37.0 | 0.00 | 0.18 | 0.00 | 45 | 1008.2 |
| 20260903173037 | 18 | 278 | 19.3 | 27.4 | 0.00 | 0.18 | 0.00 | 50 | 1008.4 |
| 20260903171535 | 17 | 236 | 11.3 | 25.7 | 0.00 | 0.18 | 0.00 | 54 | 1008.6 |
| 20260903170046 | 17 | 240 | 16.1 | 27.4 | 0.00 | 0.18 | 0.00 | 55 | 1008.3 |
| 20260903164538 | 16 | 263 | 11.3 | 22.5 | 0.00 | 0.18 | 0.00 | 60 | 1008.5 |
| 20260903163037 | 15 | 242 | 11.3 | 17.7 | 0.00 | 0.18 | 0.00 | 63 | 1008.5 |
| 20260903161536 | 13 | 249 | 9.7 | 16.1 | 0.00 | 0.18 | 0.00 | 68 | 1008.4 |
| 20260903160038 | 13 | 264 | 8.0 | 16.1 | 0.00 | 0.18 | 0.00 | 71 | 1008.4 |
| 20260903154543 | 12 | 246 | 11.3 | 19.3 | 0.00 | 0.18 | 0.00 | 73 | 1008.5 |
| 20260903153046 | 12 | 236 | 14.5 | 20.9 | 0.00 | 0.18 | 0.00 | 74 | 1008.5 |
| 20260903151537 | 12 | 230 | 12.9 | 20.9 | 0.00 | 0.18 | 0.00 | 75 | 1008.6 |
| 20260903150035 | 11 | 242 | 11.3 | 22.5 | 0.00 | 0.18 | 0.00 | 76 | 1008.4 |
| 20260903144541 | 11 | 230 | 14.5 | 20.9 | 0.00 | 0.18 | 0.00 | 77 | 1008.6 |
| 20260903143045 | 10 | 229 | 12.9 | 20.9 | 0.00 | 0.18 | 0.00 | 77 | 1008.4 |
| 20260903141542 | 10 | 215 | 14.5 | 25.7 | 0.00 | 0.18 | 0.00 | 77 | 1008.2 |
| 20260903140038 | 10 | 203 | 14.5 | 22.5 | 0.00 | 0.18 | 0.00 | 78 | 1008.0 |
| 20260903134536 | 10 | 233 | 11.3 | 22.5 | 0.00 | 0.18 | 0.00 | 77 | 1007.9 |
| 20260903133035 | 9 | 217 | 12.9 | 19.3 | 0.00 | 0.18 | 0.00 | 78 | 1007.8 |
| 20260903131535 | 9 | 202 | 11.3 | 22.5 | 0.00 | 0.18 | 0.00 | 78 | 1007.6 |
| 20260903130038 | 8 | 207 | 11.3 | 14.5 | 0.00 | 0.18 | 0.00 | 80 | 1007.4 |
| 20260903124535 | 7 | 188 | 11.3 | 14.5 | 0.00 | 0.18 | 0.00 | 81 | 1007.2 |
| 20260903123035 | 8 | 172 | 9.7 | 22.5 | 0.00 | 0.18 | 0.00 | 78 | 1006.9 |
| 20260903121534 | 9 | 214 | 16.1 | 25.7 | 0.00 | 0.18 | 0.00 | 73 | 1006.9 |
| 20260903120039 | 8 | 244 | 12.9 | 19.3 | 0.00 | 0.18 | 0.00 | 76 | 1006.9 |
| 20260903114532 | 10 | 245 | 14.5 | 24.1 | 0.00 | 0.18 | 0.00 | 72 | 1007.0 |
| 20260903113033 | 7 | 234 | 3.2 | 16.1 | 0.00 | 0.18 | 0.00 | 75 | 1007.2 |
| 20260903111546 | 10 | 252 | 11.3 | 17.7 | 0.00 | 0.18 | 0.00 | 70 | 1007.1 |
| 20260903110034 | 9 | 261 | 8.0 | 11.3 | 0.00 | 0.18 | 0.00 | 73 | 1007.3 |
| 20260903104537 | 8 | 257 | 3.2 | 6.4 | 0.00 | 0.18 | 0.00 | 76 | 1007.3 |
| 20260903103051 | 8 | 198 | 8.0 | 12.9 | 0.00 | 0.18 | 0.00 | 74 | 1007.3 |
| 20260903101534 | 8 | 229 | 4.8 | 8.0 | 0.00 | 0.18 | 0.00 | 75 | 1007.2 |
| 20260903100038 | 8 | 0 | 0.0 | 3.2 | 0.00 | 0.18 | 0.00 | 77 | 1007.1 |
| 20260903094539 | 9 | 227 | 0.0 | 4.8 | 0.00 | 0.18 | 0.00 | 75 | 1007.3 |
| 20260903093046 | 9 | 229 | 3.2 | 6.4 | 0.00 | 0.18 | 0.00 | 73 | 1006.9 |
| 20260903091539 | 9 | 242 | 3.2 | 6.4 | 0.00 | 0.18 | 0.00 | 73 | 1006.9 |
| 20260903090038 | 10 | 242 | 0.0 | 4.8 | 0.00 | 0.18 | 0.00 | 73 | 1007.0 |
| 20260903084544 | 10 | 244 | 4.8 | 12.9 | 0.00 | 0.18 | 0.00 | 73 | 1006.8 |
| 20260903083033 | 9 | 212 | 8.0 | 11.3 | 0.00 | 0.18 | 0.00 | 77 | 1006.8 |
| 20260903081535 | 8 | 198 | 6.4 | 8.0 | 0.00 | 0.18 | 0.00 | 79 | 1006.8 |
| 20260903080039 | 8 | 188 | 12.9 | 19.3 | 0.00 | 0.18 | 0.00 | 78 | 1006.8 |
| 20260903074536 | 8 | 217 | 11.3 | 16.1 | 0.00 | 0.18 | 0.00 | 79 | 1006.8 |